Kuiper-00141

operational
NORAD ID: 65966 Int'l Des: 2025-228 Owner: KUIP Country: US Constellation: kuiper
NOTLE

About Kuiper-00141

Description loading...

Live Position

Loading 3D Globe...

Upcoming Passes

Altitude History

Altitude vs Time

uPlot chart will show altitude changes over time

Two-Line Element Set

1 65966U 25228V 25298.47629657 .00023280 00000-0 69608-3 0 9990
2 65966 51.8802 253.0686 0005888 179.7225 180.3764 15.34446643 3002
Epoch: Oct 25, 2025 • Age: 13 hours

Current Status

Altitude 469.1 km
Velocity 7.64 km/s
Sub-Earth Point 51.65°N, 68.16°W
Launch Date Oct 14, 2025
Age 11 days
Type internet

Technical Details

Classification Payload
Mass 490.00 kg
Dry Mass 490.00 kg
Total Mass 490.00 kg
Length 1.80 m
Diameter 0.70 m
Span 5.00 m
Shape Box + 2 pan
Manufacturer KUIP
Bus Type Kuiper
Phase Status In Orbit
Owner/State KUIP/US

Large Constellations

Loading constellations...